Location: Dehesa de la Cepeda
(40.6574°N, 4.3013°W)
Time: 13:38:02
(UTC+00:00)

Transit 2A Rocket - Pass Details

Date: 08 August 2021
Orbit: 586 x 917 km, 66.7° (Epoch: 27 September)

Event Time Altitude Azimuth Distance (km) Brightness Sun altitude
Rises 20:55:29 0° 334° (NNW) 3,309 9.5 -15.8°
Reaches altitude 10° 20:57:55 10° 339° (NNW) 2,423 8.5 -16.2°
Maximum altitude 21:03:26 53° 57° (ENE) 1,058 5.6 -17.0°
Enters shadow 21:06:24 28° 120° (ESE) 1,601 6.1 -17.4°
